• In Latvia
  • List of Countries
  • For 7 days
  • Water Temperature
  • Satellite Maps
  • Weather Map
  • Weather Widgets
  • user-avatar
    Login

    Hourly Weather Quito

    Today, 30 April, Sunday

    Time Temperature Precipitation Wind Pressure Humidity
    00:00 +13°C° 0 mm 2 mps 623 mmHg 87%
    01:00 +13°C° 0 mm 1 mps 623 mmHg 89%
    02:00 +12°C° 0 mm 1 mps 623 mmHg 89%
    03:00 +12°C° 0 mm 1 mps 623 mmHg 90%
    04:00 +12°C° 0 mm 1 mps 623 mmHg 90%
    05:00 +13°C° 0 mm 1 mps 623 mmHg 88%
    06:00 +13°C° 0 mm 1 mps 624 mmHg 85%
    07:00 +14°C° 0 mm 2 mps 625 mmHg 81%
    08:00 +17°C° 0 mm 2 mps 625 mmHg 69%
    09:00 +19°C° 0 mm 3 mps 626 mmHg 57%
    10:00 +22°C° 0 mm 4 mps 627 mmHg 45%
    11:00 +23°C° 0 mm 4 mps 626 mmHg 43%
    12:00 +23°C° 0 mm 4 mps 626 mmHg 41%
    13:00 +26°C° 0 mm 3 mps 626 mmHg 38%
    14:00 +25°C° 0 mm 3 mps 625 mmHg 40%
    15:00 +25°C° 0 mm 3 mps 625 mmHg 41%
    16:00 +25°C° 0 mm 3 mps 625 mmHg 43%
    17:00 +21°C° 0 mm 2 mps 624 mmHg 53%
    18:00 +18°C° 0 mm 2 mps 623 mmHg 63%
    19:00 +15°C° 0 mm 2 mps 622 mmHg 72%
    20:00 +15°C° 0 mm 2 mps 623 mmHg 75%
    21:00 +14°C° 0 mm 2 mps 623 mmHg 78%
    22:00 +14°C° 0 mm 2 mps 623 mmHg 80%
    23:00 +13°C° 0 mm 2 mps 623 mmHg 82%

    Tomorrow, 1 May, Monday

    Time Temperature Precipitation Wind Pressure Humidity
    00:00 +12°C° 0 mm 1 mps 623 mmHg 85%
    01:00 +12°C° 0 mm 1 mps 622 mmHg 87%
    02:00 +12°C° 0 mm 1 mps 622 mmHg 87%
    03:00 +11°C° 0 mm 1 mps 622 mmHg 88%
    04:00 +11°C° 0 mm 1 mps 622 mmHg 88%
    05:00 +12°C° 0 mm 1 mps 622 mmHg 86%
    06:00 +13°C° 0 mm 1 mps 623 mmHg 84%
    07:00 +13°C° 0 mm 1 mps 623 mmHg 81%
    08:00 +16°C° 0 mm 2 mps 624 mmHg 70%
    09:00 +18°C° 0 mm 2 mps 625 mmHg 59%
    10:00 +21°C° 0 mm 3 mps 626 mmHg 48%
    11:00 +22°C° 0 mm 3 mps 626 mmHg 44%
    12:00 +24°C° 0 mm 3 mps 625 mmHg 40%
    13:00 +25°C° 0 mm 3 mps 625 mmHg 36%
    14:00 +25°C° 0 mm 3 mps 625 mmHg 37%
    15:00 +25°C° 0 mm 2 mps 624 mmHg 38%
    16:00 +24°C° 0 mm 2 mps 624 mmHg 39%
    17:00 +20°C° 0 mm 2 mps 623 mmHg 48%
    18:00 +17°C° 0 mm 2 mps 622 mmHg 57%
    19:00 +14°C° 0 mm 1 mps 621 mmHg 66%
    20:00 +13°C° 0 mm 1 mps 621 mmHg 68%
    21:00 +13°C° 0 mm 1 mps 622 mmHg 70%
    22:00 +12°C° 0 mm 1 mps 622 mmHg 72%
    23:00 +12°C° 0 mm 1 mps 622 mmHg 74%

    Day after tomorrow, 2 May, Tuesday

    Time Temperature Precipitation Wind Pressure Humidity
    00:00 +11°C° 0 mm 1 mps 622 mmHg 77%
    01:00 +11°C° 0 mm 1 mps 621 mmHg 79%
    02:00 +11°C° 0 mm 1 mps 621 mmHg 81%
    03:00 +11°C° 0 mm 1 mps 621 mmHg 83%
    04:00 +11°C° 0 mm 1 mps 621 mmHg 85%
    05:00 +11°C° 0 mm 1 mps 622 mmHg 83%
    06:00 +12°C° 0 mm 1 mps 622 mmHg 82%
    07:00 +13°C° 0 mm 1 mps 623 mmHg 80%
    08:00 +16°C° 0 mm 2 mps 624 mmHg 69%
    09:00 +18°C° 0 mm 2 mps 625 mmHg 57%
    10:00 +21°C° 0 mm 3 mps 626 mmHg 46%
    11:00 +22°C° 0 mm 3 mps 626 mmHg 42%
    12:00 +24°C° 0 mm 2 mps 625 mmHg 38%
    13:00 +25°C° 0 mm 2 mps 625 mmHg 34%
    14:00 +25°C° 0 mm 2 mps 624 mmHg 35%
    15:00 +25°C° 0 mm 2 mps 624 mmHg 36%
    16:00 +25°C° 0 mm 1 mps 623 mmHg 37%
    17:00 +21°C° 0 mm 1 mps 622 mmHg 50%
    18:00 +18°C° 0 mm 1 mps 621 mmHg 63%
    19:00 +13°C° 0 mm 1 mps 620 mmHg 76%
    20:00 +13°C° 0 mm 1 mps 621 mmHg 76%
    21:00 +13°C° 0 mm 1 mps 621 mmHg 76%
    22:00 +12°C° 0 mm 1 mps 622 mmHg 76%
    23:00 +12°C° 0 mm 1 mps 621 mmHg 76%

    3 May, Wednesday

    Time Temperature Precipitation Wind Pressure Humidity
    00:00 +11°C° 0 mm 1 mps 621 mmHg 77%
    01:00 +11°C° 0 mm 1 mps 621 mmHg 77%
    02:00 +11°C° 0 mm 1 mps 621 mmHg 80%
    03:00 +11°C° 0 mm 1 mps 621 mmHg 82%
    04:00 +10°C° 0 mm 1 mps 621 mmHg 84%
    05:00 +11°C° 0 mm 1 mps 621 mmHg 82%
    06:00 +12°C° 0 mm 1 mps 622 mmHg 81%
    07:00 +13°C° 0 mm 1 mps 623 mmHg 79%
    08:00 +16°C° 0 mm 2 mps 624 mmHg 68%
    09:00 +19°C° 0 mm 3 mps 625 mmHg 58%
    10:00 +21°C° 0 mm 3 mps 626 mmHg 47%
    11:00 +24°C° 0 mm 3 mps 625 mmHg 43%
    12:00 +25°C° 0 mm 2 mps 625 mmHg 38%
    13:00 +26°C° 0 mm 2 mps 625 mmHg 34%
    14:00 +26°C° 0 mm 1 mps 624 mmHg 35%
    15:00 +26°C° 0 mm 1 mps 624 mmHg 35%
    16:00 +25°C° 0 mm 1 mps 623 mmHg 36%
    17:00 +22°C° 0 mm 1 mps 623 mmHg 44%
    18:00 +19°C° 0 mm 1 mps 622 mmHg 53%
    19:00 +15°C° 0 mm 1 mps 621 mmHg 61%
    20:00 +15°C° 0 mm 1 mps 621 mmHg 63%
    21:00 +14°C° 0 mm 1 mps 622 mmHg 66%
    22:00 +14°C° 0 mm 1 mps 622 mmHg 68%
    23:00 +14°C° 0 mm 1 mps 622 mmHg 68%

    4 May, Thursday

    Time Temperature Precipitation Wind Pressure Humidity
    00:00 +15°C° 0 mm 1 mps 622 mmHg 69%
    01:00 +15°C° 0 mm 1 mps 622 mmHg 69%
    02:00 +14°C° 0 mm 1 mps 622 mmHg 76%
    03:00 +13°C° 0 mm 1 mps 621 mmHg 82%
    04:00 +12°C° 0 mm 1 mps 621 mmHg 89%
    05:00 +12°C° 0 mm 1 mps 622 mmHg 86%
    06:00 +13°C° 0 mm 2 mps 622 mmHg 84%
    07:00 +14°C° 0 mm 2 mps 623 mmHg 82%
    08:00 +17°C° 0 mm 2 mps 624 mmHg 70%
    09:00 +19°C° 0 mm 3 mps 625 mmHg 58%
    10:00 +22°C° 0 mm 4 mps 626 mmHg 46%
    11:00 +24°C° 0 mm 3 mps 625 mmHg 41%
    12:00 +26°C° 0 mm 3 mps 625 mmHg 36%
    13:00 +27°C° 0 mm 2 mps 624 mmHg 31%
    14:00 +26°C° 0 mm 2 mps 624 mmHg 33%
    15:00 +26°C° 0 mm 2 mps 624 mmHg 34%
    16:00 +26°C° 0 mm 2 mps 623 mmHg 35%
    17:00 +23°C° 0 mm 2 mps 622 mmHg 44%
    18:00 +18°C° 0 mm 2 mps 622 mmHg 52%
    19:00 +15°C° 0 mm 2 mps 621 mmHg 61%
    20:00 +15°C° 0 mm 2 mps 621 mmHg 64%
    21:00 +14°C° 0 mm 2 mps 621 mmHg 67%
    22:00 +13°C° 0 mm 1 mps 622 mmHg 70%
    23:00 +13°C° 0 mm 1 mps 621 mmHg 73%

    5 May, Friday

    Time Temperature Precipitation Wind Pressure Humidity
    00:00 +12°C° 0 mm 1 mps 621 mmHg 76%
    01:00 +12°C° 0 mm 1 mps 621 mmHg 80%
    02:00 +11°C° 0 mm 1 mps 621 mmHg 81%
    03:00 +11°C° 0 mm 1 mps 621 mmHg 83%
    04:00 +11°C° 0 mm 1 mps 621 mmHg 85%
    05:00 +12°C° 0 mm 1 mps 621 mmHg 82%
    06:00 +12°C° 0 mm 1 mps 622 mmHg 78%
    07:00 +13°C° 0 mm 2 mps 623 mmHg 75%
    08:00 +16°C° 0 mm 2 mps 624 mmHg 65%
    09:00 +19°C° 0 mm 3 mps 625 mmHg 55%
    10:00 +22°C° 0 mm 4 mps 625 mmHg 44%
    11:00 +23°C° 0 mm 4 mps 625 mmHg 41%
    12:00 +25°C° 0 mm 3 mps 625 mmHg 38%
    13:00 +26°C° 0 mm 3 mps 624 mmHg 36%
    14:00 +26°C° 0 mm 3 mps 624 mmHg 37%
    15:00 +26°C° 0 mm 3 mps 623 mmHg 38%
    16:00 +25°C° 0 mm 2 mps 623 mmHg 40%
    17:00 +21°C° 0 mm 2 mps 623 mmHg 51%
    18:00 +18°C° 0 mm 2 mps 622 mmHg 61%
    19:00 +15°C° 0 mm 2 mps 622 mmHg 72%
    20:00 +14°C° 0 mm 1 mps 622 mmHg 74%
    21:00 +13°C° 0 mm 1 mps 622 mmHg 76%
    22:00 +13°C° 0 mm 1 mps 622 mmHg 78%
    23:00 +12°C° 0 mm 1 mps 621 mmHg 80%
    Show more